Location: Young's Pond
(41.2695°N, 72.7766°W)
Time: 11:30:06
(UTC-04:00)

CZ-4B R/B - Visible Passes

Search period start: 25 May 2015 00:00
Search period end: 04 June 2015 00:00
Orbit: 417 x 526 km, 97.5° (Epoch: 25 May)

Date Brightness Start Highest point End Pass type
(mag) Time Alt. Az. Time Alt. Az. Time Alt. Az.
25 May 2.9 23:26:37 35° NNE 23:26:37 35° NNE 23:28:54 10° N visible
26 May 3.4 22:57:59 21° NE 22:57:59 21° NE 23:00:02 10° NNE visible
27 May 4.1 00:32:04 15° WNW 00:32:04 15° WNW 00:33:05 10° NW visible
27 May 4.1 22:29:20 10° ENE 22:29:20 10° ENE 22:29:37 10° ENE visible
28 May 3.3 00:03:25 29° NW 00:03:25 29° NW 00:05:20 10° NNW visible
28 May 2.7 23:34:46 39° N 23:34:46 39° N 23:37:03 10° N visible
29 May 3.2 23:06:06 24° NE 23:06:06 24° NE 23:08:18 10° NNE visible
30 May 4.3 00:40:11 12° WNW 00:40:11 12° WNW 00:40:46 10° NW visible
30 May 3.9 22:37:25 12° ENE 22:37:25 12° ENE 22:38:40 10° NE visible
31 May 3.5 00:11:30 25° NW 00:11:30 25° NW 00:13:16 10° NNW visible
31 May 2.7 23:42:49 40° N 23:42:49 40° N 23:45:03 10° N visible
01 Jun 2.9 23:14:07 29° NE 23:14:07 29° NE 23:16:24 10° N visible
02 Jun 3.7 22:45:24 15° ENE 22:45:24 15° ENE 22:47:04 10° NNE visible
03 Jun 3.7 00:19:29 21° WNW 00:19:29 21° WNW 00:21:01 10° NW visible
03 Jun 2.8 23:50:46 38° NNW 23:50:46 38° NNW 23:52:56 10° NNW visible
